KB4UTZ Weather Reports


Display with metric or nautical units.
time (UTC)temp
F
wind
direction
speed
MPH
gust
MPH
rain 1hr
in
rain 24hr
in
rain mn
in
humidity
%
barometer
mb
20260504000035 56 348 0.0 2.0 0.00 0.00 0.00 57 1020.5
20260503235036 57 249 1.0 2.0 0.00 0.00 0.00 54 1020.4
20260503234035 58 233 1.0 2.0 0.00 0.00 0.00 51 1020.5
20260503233035 59 297 1.0 2.0 0.00 0.00 0.00 49 1020.6
20260503232035 60 304 1.0 3.0 0.00 0.00 0.00 46 1020.6
20260503231035 61 329 3.0 4.0 0.00 0.00 0.00 44 1020.8
20260503230036 62 311 2.0 4.0 0.00 0.00 0.00 43 1020.7
20260503225036 63 321 1.0 4.0 0.00 0.00 0.00 41 1020.9
20260503224036 64 323 1.0 3.0 0.00 0.00 0.00 40 1020.8
20260503223036 65 291 1.0 4.0 0.00 0.00 0.00 36 1020.9
20260503222036 66 154 3.0 10.0 0.00 0.00 0.00 32 1020.9
20260503221056 67 110 1.0 3.0 0.00 0.00 0.00 33 1020.9
20260503220036 67 183 2.0 5.0 0.00 0.00 0.00 34 1021.0
20260503215035 67 200 2.0 4.0 0.00 0.00 0.00 34 1020.9
20260503214035 67 216 2.0 5.0 0.00 0.00 0.00 34 1021.1
20260503213035 66 248 3.0 7.0 0.00 0.00 0.00 33 1021.2
20260503212055 67 281 3.0 6.0 0.00 0.00 0.00 32 1021.2
20260503211035 67 192 2.0 6.0 0.00 0.00 0.00 34 1021.2
20260503210056 66 202 3.0 4.0 0.00 0.00 0.00 32 1021.2
20260503205036 67 135 3.0 8.0 0.00 0.00 0.00 32 1021.4
20260503204035 67 192 3.0 6.0 0.00 0.00 0.00 33 1021.6
20260503203056 67 128 2.0 6.0 0.00 0.00 0.00 32 1021.8
20260503202035 67 200 3.0 6.0 0.00 0.00 0.00 34 1021.8
20260503201055 67 99 3.0 5.0 0.00 0.00 0.00 33 1022.1
20260503200036 65 205 3.0 5.0 0.00 0.00 0.00 35 1022.1
20260503195036 66 162 4.0 9.0 0.00 0.00 0.00 33 1022.4
20260503194036 65 213 4.0 7.0 0.00 0.00 0.00 36 1022.3
20260503193036 65 127 3.0 8.0 0.00 0.00 0.00 36 1022.4
20260503192035 65 135 4.0 5.0 0.00 0.00 0.00 35 1022.6
20260503191035 65 174 3.0 6.0 0.00 0.00 0.00 37 1022.6
20260503190036 64 181 3.0 7.0 0.00 0.00 0.00 36 1022.8
20260503185036 64 137 3.0 7.0 0.00 0.00 0.00 36 1023.0
20260503184036 63 236 3.0 6.0 0.00 0.00 0.00 37 1023.0
20260503183035 64 162 4.0 6.0 0.00 0.00 0.00 37 1023.1
20260503182036 64 181 5.0 9.0 0.00 0.00 0.00 36 1023.3
20260503181121 62 188 4.0 8.0 0.00 0.00 0.00 37 1023.4
20260503180035 63 207 2.0 6.0 0.00 0.00 0.00 37 1023.3
20260503175035 62 184 3.0 6.0 0.00 0.00 0.00 38 1023.6
20260503174035 62 182 3.0 6.0 0.00 0.00 0.00 39 1023.6
20260503173035 63 206 6.0 10.0 0.00 0.00 0.00 38 1023.8
20260503172035 63 159 2.0 6.0 0.00 0.00 0.00 39 1023.9
20260503171035 61 179 2.0 6.0 0.00 0.00 0.00 40 1023.9
20260503131035 54 101 1.0 2.0 0.00 0.00 0.00 60 1025.3
20260503081034 46 0.0 1.0 0.00 0.00 0.00 82 1022.5
20260503080115 46 0.0 1.0 0.00 0.00 0.00 83 1022.3
20260503072035 47 0.0 2.0 0.00 0.00 0.00 78 1022.2
20260503071034 47 337 0.0 1.0 0.00 0.00 0.00 78 1022.1
20260503055055 48 213 0.0 2.0 0.00 0.00 0.00 77 1021.9
20260503054035 48 304 0.0 1.0 0.00 0.00 0.00 76 1021.9
20260503053034 48 311 0.0 1.0 0.00 0.00 0.00 76 1021.9
20260503052035 49 2 0.0 1.0 0.00 0.00 0.00 77 1021.9
20260503051034 49 238 0.0 2.0 0.00 0.00 0.00 75 1021.8
20260503050034 49 318 0.0 2.0 0.00 0.00 0.00 74 1021.8
20260503045034 49 14 0.0 2.0 0.00 0.00 0.00 74 1021.8
20260503044034 49 0.0 1.0 0.00 0.00 0.00 75 1021.8
20260503043034 49 0.0 2.0 0.00 0.00 0.00 73 1021.9
20260503042034 49 354 0.0 2.0 0.00 0.00 0.00 72 1021.8
20260503041034 49 252 0.0 2.0 0.00 0.00 0.00 74 1021.6
20260503040034 49 344 0.0 2.0 0.00 0.00 0.00 72 1021.6
20260503035034 49 306 1.0 2.0 0.00 0.00 0.00 73 1021.6
20260503034034 49 0.0 2.0 0.00 0.00 0.00 73 1021.6
20260503033054 49 302 0.0 2.0 0.00 0.00 0.00 72 1021.5
20260503032034 49 257 0.0 2.0 0.00 0.00 0.00 72 1021.5
20260503031034 49 0.0 1.0 0.00 0.00 0.00 71 1021.4
20260503030034 49 284 1.0 2.0 0.00 0.00 0.00 70 1021.4
20260503025034 49 272 1.0 2.0 0.00 0.00 0.00 72 1021.2
20260503024034 49 349 1.0 2.0 0.00 0.00 0.00 70 1021.0
20260503023033 49 314 0.0 1.0 0.00 0.00 0.00 69 1020.9
20260503022033 48 0.0 2.0 0.00 0.00 0.00 70 1020.8
20260503021214 48 334 0.0 2.0 0.00 0.00 0.00 68 1020.8
20260503020033 49 326 1.0 3.0 0.00 0.00 0.00 67 1020.6
20260503015033 49 317 1.0 2.0 0.00 0.00 0.00 66 1020.5
20260503014033 50 0.0 2.0 0.00 0.00 0.00 64 1020.2
20260503013033 50 346 0.0 2.0 0.00 0.00 0.00 62 1020.1
20260503012053 51 328 0.0 2.0 0.00 0.00 0.00 61 1020.0
20260503011033 52 259 0.0 2.0 0.00 0.00 0.00 60 1019.8
20260503010032 53 276 1.0 2.0 0.00 0.00 0.00 59 1019.7
20260503005033 53 260 0.0 3.0 0.00 0.00 0.00 57 1019.5
20260503004033 54 285 1.0 2.0 0.00 0.00 0.00 55 1019.4
20260503003033 55 320 1.0 2.0 0.00 0.00 0.00 54 1019.2
20260503002033 56 16 0.0 2.0 0.00 0.00 0.00 53 1019.0
20260503001032 56 325 1.0 2.0 0.00 0.00 0.00 53 1019.0